Regional Weather Roundup
Issued by NWS

Home | Current Version | Previous Version | Graphics & Text | Print | Product List | Glossary On
Versions: 1 2 3 4 5 6 7 8 9 10 11 12 13 14 15 16 17 18 19 20 21 22 23 24 25 26 27 28 29 30 31 32 33 34 35 36 37 38 39 40 41 42 43 44 45 46 47 48 49 50
497
ASUS43 KIND 010359
RWRIN

WEATHER ROUNDUP FOR INDIANA
NATIONAL WEATHER SERVICE INDIANAPOLIS IN
1200 AM EDT WED JUN 01 2016

NOTE: "FAIR" INDICATES FEW OR NO CLOUDS BELOW 12,000 FEET WITH NO
SIGNIFICANT WEATHER AND/OR OBSTRUCTIONS TO VISIBILITY.

* - STATION DOES NOT REPORT WEATHER SUCH AS PRECIPITATION OR FOG.

+ - STATION NOT QUALITY CONTROLLED BY THE NATIONAL WEATHER SERVICE.
    USE DATA WITH CAUTION...ESPECIALLY DEWPOINT AND RELATIVE
    HUMIDITY OBSERVATIONS.

INZ001>003-010>013-019-020-010500-
NORTHWEST INDIANA

CITY           SKY/WX    TMP DP  RH WIND       PRES   REMARKS
RENSSELAER +   MOCLDY    66  63  88 CALM      29.97S

$$

LMZ046-743>745-010500-
SOUTHERN LAKE MICHIGAN

STATION/POSITION TIME  TEMP    WIND        PRES    WAVE
                       AIR SEA DIR/SP/G            HT
                 (UTC) (F)     (DEG/KT/KT) (MB)    (FT)
BURNS HARBOR     0300   63      70/  8/ 12 1015.6S
MICHIGAN CITY    0300   64      70/ 10/ 13   N/A
5NW MICH CITY    0300   63 62  100/  8/ 10   N/A     2

$$

INZ004-005-014>016-021>024-010500-
NORTH CENTRAL INDIANA

CITY           SKY/WX    TMP DP  RH WIND       PRES   REMARKS
GOSHEN         CLOUDY    68  58  70 E5        30.02S
SOUTH BEND     CLOUDY    65  61  87 E5        30.01F

$$

INZ006>009-017-018-025>027-010500-
NORTHEAST INDIANA

CITY           SKY/WX    TMP DP  RH WIND       PRES   REMARKS
ANGOLA *+        N/A     70  61  73 SE5       30.04R
FORT WAYNE     PTCLDY    68  48  48 NE3       30.02R

$$

INZ028-029-035-036-043>045-051>053-010500-
WEST CENTRAL INDIANA

CITY           SKY/WX    TMP DP  RH WIND       PRES   REMARKS
CRAWFORDSVL +  PTCLDY    69  58  68 E8        29.97F
GREENCASTLE +  CLEAR     68  63  83 CALM      29.98S
LAFAYETTE      PTCLDY    68  59  73 E7        29.96S
TERRE HAUTE    CLOUDY    71  60  68 CALM      29.96S

$$

INZ030>032-037>040-046>048-054>057-064-065-010500-
CENTRAL INDIANA

CITY           SKY/WX    TMP DP  RH WIND       PRES   REMARKS
INDIANAPOLIS   PTCLDY    73  59  61 NE9       29.97R
-EAGLE CREEK   PTCLDY    73  58  59 E3        29.98R
KOKOMO *+      PTCLDY    68  57  68 E10       29.99S
SHELBYVILLE    CLEAR     70  65  84 CALM      29.97R

$$

INZ033-034-041-042-049-050-058-059-010500-
EAST CENTRAL INDIANA

CITY           SKY/WX    TMP DP  RH WIND       PRES   REMARKS
MUNCIE         CLOUDY    75  54  47 E9        30.01R

$$

INZ060-061-067>069-081>083-085>088-010500-
SOUTHWEST INDIANA

CITY           SKY/WX    TMP DP  RH WIND       PRES   REMARKS
EVANSVILLE     CLOUDY    74  62  66 CALM      29.95S
HUNTINGBURG *+ MOCLDY    70  61  73 SE3       29.95F

$$

INZ062-063-066-070>080-084-089>092-010500-
SOUTH CENTRAL AND SOUTHEAST INDIANA

CITY           SKY/WX    TMP DP  RH WIND       PRES   REMARKS
BLOOMINGTON    CLOUDY    67  62  84 CALM      29.97S
MADISON *+     CLEAR     64  61  88 CALM      30.01R
SEYMOUR +      CLEAR     70  63  78 CALM      29.98R

$$





USA.gov is the U.S. government's official web portal to all federal, state and local government web resources and services.